Simultaneous Nadir Overpasses (SNOs) Predictions

Prediction of SNOs between METOP-A and TERRA Satellite Orbit:

Table of predicted SNOs for the next 14.0 days since TLE Epoch: 11/20/2021
Index Date (METOP-A) Time (METOP-A) Lat,Lon (METOP-A) SZA (METOP-A ) Date (TERRA) Time (TERRA) Lat,Lon (TERRA) SZA (TERRA ) Distance(km) Time Diff (sec)
1 11/22/2021 12:20:23 81.24, 38.51 104.12 11/22/2021 12:21:29 81.23, 38.51 104.15 1.00 66
2 11/22/2021 13:10:42 -81.23,-153.87 75.86 11/22/2021 13:10:56 -81.23,-153.95 75.87 1.62 14
3 11/22/2021 14:00:34 81.23, 13.83 104.17 11/22/2021 14:00:22 81.23, 13.79 104.16 1.04 12
4 11/22/2021 14:50:53 -81.22,-178.57 75.82 11/22/2021 14:49:49 -81.23,-178.67 75.85 2.04 64
5 11/27/2021 15:56:52 81.24, -15.63 105.08 11/27/2021 15:57:41 81.23, -15.65 105.09 1.73 49
6 11/27/2021 16:47:06 -81.24, 151.90 74.92 11/27/2021 16:47:08 -81.22, 151.93 74.92 1.83 2
7 11/27/2021 17:37:06 81.23, -40.38 105.11 11/27/2021 17:36:34 81.23, -40.38 105.10 0.31 32
8 12/02/2021 14:36:05 81.36, 1.53 105.59 12/02/2021 14:37:15 81.17, 3.48 105.68 39.24 70
9 12/02/2021 15:26:05 -81.23, 172.27 74.16 12/02/2021 15:26:39 -81.24, 172.21 74.15 1.12 34
10 12/02/2021 16:16:14 81.24, -20.30 105.84 12/02/2021 16:16:05 81.24, -20.14 105.86 2.62 9



Historial Predications of SNOs between METOP-A and TERRA
